Location: Zagreb
(45.8000°N, 16.0000°E)
Time: 00:49:13
(UTC+01:00)

NUDT-PHONESAT - Pass Details

Date: 08 November 2020
Orbit: 481 x 500 km, 97.4° (Epoch: 30 November)

Event Time Altitude Azimuth Distance (km) Brightness Sun altitude
Rises 18:23:09 0° 192° (SSW) 2,584 ? -19.5°
Reaches altitude 10° 18:25:27 10° 205° (SSW) 1,705 ? -19.9°
Maximum altitude 18:28:37 27° 264° (W) 997 ? -20.4°
Drops below altitude 10° 18:31:47 10° 324° (NW) 1,713 ? -21.0°
Sets 18:34:06 0° 337° (NNW) 2,599 ? -21.4°
